This is the latest recevied weather packets stored in our database for station/object W0AKO. If no packets are shown the sender has not sent any weather packets the latest 10 day(s).
| Time | Temp. | Humidity | Pressure | Rain* | Wind** | Luminosity | Snow |
|---|---|---|---|---|---|---|---|
| 1777722598 | 11.67° C | 10% | 1019.7 hPa | 0 mm | - | 0 W/m² | - |
| 1777722295 | 11.11° C | 10% | 1019.9 hPa | 0 mm | - | 0 W/m² | - |
| 1777721992 | 11.67° C | 10% | 1019.9 hPa | 0 mm | - | 0 W/m² | - |
| 1777721689 | 12.22° C | 10% | 1020 hPa | 0 mm | - | 0 W/m² | - |
| 1777721388 | 13.33° C | 10% | 1019.7 hPa | 0 mm | - | 0 W/m² | - |
| 1777721085 | 13.89° C | 10% | 1019.9 hPa | 0 mm | - | 0 W/m² | - |
| 1777720783 | 12.78° C | 10% | 1019.9 hPa | 0 mm | - | 0 W/m² | - |
| 1777720480 | 12.22° C | 10% | 1019.7 hPa | 0 mm | - | 0 W/m² | - |
| 1777720177 | 12.22° C | 10% | 1019.7 hPa | 0 mm | - | 0 W/m² | - |
| 1777719875 | 13.33° C | 10% | 1020 hPa | 0 mm | - | 0 W/m² | - |
| 1777719571 | 13.33° C | 10% | 1019.9 hPa | 0 mm | - | 0 W/m² | - |
| 1777719269 | 13.33° C | 10% | 1019.7 hPa | 0 mm | - | 0 W/m² | - |
| 1777718967 | 13.33° C | 10% | 1019.9 hPa | 0 mm | - | 0 W/m² | - |
| 1777718664 | 13.33° C | 10% | 1019.7 hPa | 0 mm | - | 0 W/m² | - |
| 1777718361 | 13.33° C | 10% | 1019.7 hPa | 0 mm | - | 0 W/m² | - |
| 1777718059 | 12.78° C | 10% | 1019.6 hPa | 0 mm | - | 0 W/m² | - |
| 1777717755 | 13.33° C | 10% | 1019.6 hPa | 0 mm | - | 0 W/m² | - |
| 1777717452 | 13.33° C | 10% | 1020 hPa | 0 mm | - | 0 W/m² | - |
| 1777717149 | 12.78° C | 10% | 1020 hPa | 0 mm | - | 0 W/m² | - |
| 1777716848 | 13.33° C | 10% | 1019.9 hPa | 0 mm | - | 0 W/m² | - |
| 1777716546 | 13.33° C | 10% | 1019.5 hPa | 0 mm | - | 0 W/m² | - |
| 1777716245 | 13.33° C | 10% | 1019.6 hPa | 0 mm | - | 0 W/m² | - |
| 1777715941 | 13.33° C | 10% | 1019.7 hPa | 0 mm | - | 0 W/m² | - |
| 1777715639 | 13.33° C | 10% | 1019.6 hPa | 0 mm | - | 0 W/m² | - |
| 1777715337 | 13.33° C | 10% | 1019.6 hPa | 0 mm | - | 0 W/m² | - |
* Rain latest hour (hover to see other rain measurements)
** Current wind speed in m/s (hover to see current wind gust speed)